Location: Unspecified
(42.9300°N, 71.1866°W)
Time: 17:29:45
(UTC-04:00)

CZ-3 Stage 3 - Visible Passes

Search period start: 31 October 2014 00:00
Search period end: 09 November 2014 23:00
Orbit: 417 x 34819 km, 30.9° (Epoch: 29 October)

Date Brightness Start Highest point End Pass type
(mag) Time Alt. Az. Time Alt. Az. Time Alt. Az.
31 Oct 7.1 00:00:00 30° S 04:58:51 62° S 05:16:12 10° E visible
31 Oct 8.1 20:02:57 10° SE 00:41:20 43° SE 01:36:19 10° E visible
02 Nov 5.6 07:01:48 10° W 07:39:35 37° SW 07:45:42 10° SSE visible
02 Nov 7.1 19:53:20 10° S 03:55:22 63° S 04:12:20 10° E visible
03 Nov 8.0 18:47:35 10° SE 23:37:39 44° SE 00:32:46 10° E visible
05 Nov 5.6 06:59:52 10° W 07:35:28 35° SW 07:41:34 10° SSE visible
05 Nov 7.0 19:45:24 10° S 03:51:44 63° S 04:08:20 10° ESE visible
06 Nov 8.0 18:32:20 10° SE 23:33:50 46° SE 00:29:03 10° E visible
08 Nov 5.7 06:57:38 10° W 07:31:12 34° SW 07:37:18 10° SSE visible
08 Nov 7.0 19:37:43 10° S 03:47:57 64° S 04:04:14 10° ESE visible
09 Nov 9.4 18:17:12 10° SE 23:00:00 46° SE 22:07:44 41° SE visible
